Weather History for Kahului, HI

Change the Weather History Date:

Sunday, November 4, 2012

  Actual Average Record
Temperature  
Mean Temperature 75 °F 77 °F  
Max Temperature 86 °F 85 °F 92 °F (1995)
Min Temperature 63 °F 69 °F 61 °F (1970)
Degree Days  
Heating Degree Days 0 0  
Month to date heating degree days 0 0  
Since 1 July heating degree days 0 0  
Cooling Degree Days 10 12  
Month to date cooling degree days 38 48  
Year to date cooling degree days 3380 3424  
Growing Degree Days 22 (Base 50)    
Moisture  
Dew Point 68 °F    
Average Humidity 79    
Maximum Humidity 100    
Minimum Humidity 58    
Precipitation  
Precipitation T in 0.05 in 3.14 in (1988)
Month to date precipitation T 0.21  
Year to date precipitation 4.71 12.49  
Snow  
Snow 0.00 in - - ()
Month to date snowfall 0.0  
Since 1 July snowfall 0.0  
Since 1 September snowfall 0.0  
Snow Depth 0.00 in    
Sea Level Pressure  
Sea Level Pressure 29.99 in    
Wind  
Wind Speed 6 mph (ENE)    
Max Wind Speed 15 mph    
Max Gust Speed 17 mph    
Visibility 10 miles    
Events      
T = Trace of Precipitation, MM = Missing Value Source: NWS Daily Summary

Daily Weather History Graph

Daily Weather History Graph

Search for Another Location

Airport:

Trip Planner

Search our weather history database for the weather conditions in past years. The results will help you decide how hot, cold, wet, or windy it might be!

Date:

Astronomy

Nov. 04, 2012 Rise Set
Actual Time 6:30 AM HST 5:48 PM HST
Civil Twilight 6:07 AM HST 6:11 PM HST
Nautical Twilight 5:40 AM HST 6:37 PM HST
Astronomical Twilight 5:14 AM HST 7:03 PM HST
Moon 10:41 PM HST (11/4) 11:13 AM HST (11/4)
Length of Visible Light 12h 04m
Length of Day
11h 18m
Waning Gibbous, 70% of the Moon is Illuminated
Nov 4
Waning Gibbous
Nov 6
Last Quarter
Nov 13
New
Nov 20
First Quarter
Nov 28
Full

Hourly Weather History & Observations

Time (HST) Temp. Heat Index Dew Point Humidity Pressure Visibility Wind Dir Wind Speed Gust Speed Precip Events Conditions
12:54 AM 66.0 °F - 64.9 °F 96% 29.99 in 10.0 mi SSE 6.9 mph - N/A   Clear
1:54 AM 64.9 °F - 63.0 °F 93% 29.98 in 10.0 mi Calm Calm - N/A   Clear
2:54 AM 63.0 °F - 62.1 °F 97% 29.98 in 10.0 mi Calm Calm - N/A   Clear
3:54 AM 64.0 °F - 63.0 °F 96% 29.97 in 10.0 mi South 6.9 mph - N/A   Clear
4:54 AM 64.9 °F - 64.0 °F 97% 29.97 in 10.0 mi SSE 6.9 mph - N/A   Clear
5:54 AM 64.9 °F - 64.0 °F 97% 29.98 in 10.0 mi Calm Calm - N/A   Partly Cloudy
6:54 AM 63.0 °F - 62.1 °F 97% 30.00 in 10.0 mi South 5.8 mph - 0.00 in   Partly Cloudy
7:54 AM 71.1 °F - 64.0 °F 78% 30.01 in 10.0 mi Calm Calm - N/A   Clear
8:54 AM 79.0 °F - 66.0 °F 64% 30.01 in 10.0 mi Calm Calm - N/A   Clear
9:54 AM 82.0 °F 84.5 °F 66.9 °F 60% 30.02 in 10.0 mi North 5.8 mph - 0.00 in   Clear
10:54 AM 84.0 °F 89.6 °F 72.0 °F 67% 30.00 in 10.0 mi North 9.2 mph - N/A   Clear
11:54 AM 84.9 °F 88.8 °F 69.1 °F 59% 29.98 in 10.0 mi NE 11.5 mph - N/A   Partly Cloudy
12:54 PM 84.9 °F 89.4 °F 70.0 °F 61% 29.96 in 10.0 mi NE 12.7 mph - N/A   Partly Cloudy
1:54 PM 82.0 °F 86.7 °F 72.0 °F 71% 29.96 in 10.0 mi NE 13.8 mph - N/A   Scattered Clouds
2:54 PM 81.0 °F 85.8 °F 73.0 °F 77% 29.96 in 10.0 mi NNE 11.5 mph - N/A   Scattered Clouds
3:54 PM 80.1 °F 84.5 °F 73.9 °F 81% 29.97 in 10.0 mi NNE 9.2 mph - N/A   Scattered Clouds
4:54 PM 80.1 °F 84.2 °F 73.0 °F 79% 29.97 in 10.0 mi NE 6.9 mph - N/A   Scattered Clouds
5:54 PM 78.1 °F - 73.9 °F 87% 29.98 in 9.0 mi NE 3.5 mph - N/A   Scattered Clouds
6:54 PM 75.9 °F - 73.9 °F 94% 29.99 in 10.0 mi NNW 3.5 mph - N/A   Clear
7:54 PM 75.0 °F - 73.0 °F 94% 30.01 in 10.0 mi NNW 4.6 mph - N/A   Clear
8:54 PM 73.9 °F - 71.1 °F 91% 30.01 in 10.0 mi WNW 4.6 mph - N/A   Clear
9:54 PM 68.0 °F - 66.9 °F 96% 30.01 in 10.0 mi SSE 3.5 mph - N/A   Clear
10:54 PM 66.9 °F - 66.0 °F 97% 30.00 in 10.0 mi SE 5.8 mph - N/A   Clear
11:54 PM 66.9 °F - 64.0 °F 90% 30.00 in 10.0 mi SSE 3.5 mph - N/A   Clear